Location: Guadanolo
(41.9167°N, 12.9333°E)
Time: 02:52:29
(UTC+00:00)

MOS 1 - Pass Details

Date: 16 September 2019
Orbit: 878 x 892 km, 99.2° (Epoch: 16 October)

Event Time Altitude Azimuth Distance (km) Brightness Sun altitude
Rises 18:35:21 0° 168° (SSE) 3,488 7.1 -15.2°
Reaches altitude 10° 18:37:44 10° 169° (S) 2,552 6.4 -15.6°
Maximum altitude 18:43:26 78° 256° (WSW) 915 4.4 -16.6°
Drops below altitude 10° 18:49:09 10° 343° (NNW) 2,563 7.2 -17.6°
Sets 18:51:34 0° 345° (NNW) 3,505 7.9 -18.0°
